This demonstration page uses our WeatherBlox Daily Observations layout. Learn more.

Left ArrowRight Arrow

40.92945, -100.16068

Hourly Observations for July 14, 2019

Temp ( °F °C ) Dew Point ( °F °C ) Humidity (%) Winds ( mph kmh ) Pressure ( in mb ) Visibility ( mi km ) Precip ( " mm )
12:15 am 00:15 Clear 73 22.6 67 19.5 83 83 SE 6 9 29.96 1015 10 16 N/A
12:35 am 00:35 Clear 72 22.4 67 19.3 83 83 SE 8 13 29.96 1015 10 16 N/A
12:55 am 00:55 Clear 72 22.2 66 19.1 83 83 SSE 6 9 29.96 1015 10 16 N/A
1:15 am 01:15 Clear 71 21.5 66 19.1 86 86 SSE 6 9 29.97 1015 10 16 N/A
1:35 am 01:35 Clear 70 21.2 66 19 87 87 SSE 8 13 29.96 1015 10 16 N/A
1:55 am 01:55 Clear 69 20.8 66 18.8 88 88 S 6 9 29.97 1015 10 16 N/A
2:15 am 02:15 Clear 69 20.5 65 18.5 88 88 SSE 6 9 29.97 1015 10 16 N/A
2:35 am 02:35 Clear 69 20.6 65 18.5 88 88 SSE 6 9 29.98 1015 10 16 N/A
2:55 am 02:55 Clear 69 20.4 65 18.5 89 89 SSE 6 9 29.97 1015 10 16 N/A
3:15 am 03:15 Clear 69 20.6 65 18.5 88 88 SSE 6 9 29.97 1015 10 16 N/A
3:35 am 03:35 Clear 67 19.7 65 18.3 92 92 N N/A 29.97 1015 10 16 N/A
3:55 am 03:55 Clear 68 20 65 18.3 90 90 SE 3 6 29.98 1015 10 16 N/A
4:15 am 04:15 Clear 66 19 65 18.5 97 97 E 6 9 30.00 1016 10 16 N/A
4:35 am 04:35 Clear 67 19.4 66 18.7 96 96 N N/A 30.00 1016 10 16 N/A
4:55 am 04:55 Clear 68 20 66 18.8 93 93 S 3 6 29.99 1016 10 16 N/A
5:15 am 05:15 Clear 67 19.2 65 18.6 96 96 SSW 5 7 30.00 1016 10 16 N/A
5:35 am 05:35 Clear 67 19.3 65 18.3 94 94 S 6 9 29.99 1016 10 16 N/A
5:55 am 05:55 Clear 67 19.3 65 18.1 93 93 SSE 7 11 29.99 1016 10 16 N/A
6:15 am 06:15 Clear 66 19 64 18 94 94 SSE 7 11 29.99 1016 10 16 N/A
6:35 am 06:35 Sunny 66 19.1 64 17.7 92 92 SE 6 9 30.00 1016 10 16 N/A
6:55 am 06:55 Sunny 67 19.5 64 17.7 89 89 S 6 9 30.00 1016 10 16 N/A
7:15 am 07:15 Sunny 68 20 64 17.6 86 86 S 5 7 29.99 1016 10 16 N/A
7:35 am 07:35 Sunny 68 20.2 64 17.9 87 87 SSE 5 7 29.99 1016 10 16 N/A
7:55 am 07:55 Sunny 70 21.3 65 18.1 82 82 SSE 6 9 29.98 1015 10 16 N/A
8:15 am 08:15 Sunny 72 22.1 66 18.7 81 81 SSE 6 9 29.97 1015 10 16 N/A
8:35 am 08:35 Sunny 74 23.1 66 19.1 78 78 SSE 6 9 29.98 1015 10 16 N/A
8:55 am 08:55 Sunny 75 23.7 67 19.3 76 76 S 7 11 29.97 1015 10 16 N/A
9:15 am 09:15 Sunny 76 24.6 67 19.5 73 73 S 7 11 29.95 1014 10 16 N/A
9:35 am 09:35 Sunny 77 25.1 67 19.2 70 70 SSW 13 20 29.96 1015 10 16 N/A
9:55 am 09:55 Sunny 78 25.3 67 19.5 70 70 S 9 15 29.96 1014 10 16 N/A
10:15 am 10:15 Sunny 79 26.1 67 19.7 68 68 SSW 12 19 29.94 1014 10 16 N/A
10:35 am 10:35 Sunny 80 26.5 67 19.7 66 66 SSW 10 17 29.94 1014 10 16 N/A
10:55 am 10:55 Sunny 80 26.8 68 20.2 67 67 S 8 13 29.93 1014 10 16 N/A
11:15 am 11:15 Sunny 81 27.1 68 19.9 65 65 S 15 24 29.93 1014 10 16 N/A
11:35 am 11:35 Sunny 82 27.8 68 20 63 63 SSW 12 19 29.93 1013 10 16 N/A
11:55 am 11:55 Sunny 83 28.2 69 20.6 63 63 SSW 10 17 29.91 1013 10 16 N/A
12:15 pm 12:15 Sunny 83 28.5 68 20.2 61 61 S 10 17 29.91 1013 10 16 N/A
12:35 pm 12:35 Sunny 84 28.9 69 20.6 61 61 S 10 17 29.91 1013 10 16 N/A
12:55 pm 12:55 Sunny 85 29.2 70 21.1 62 62 S 14 22 29.91 1013 10 16 N/A
1:15 pm 13:15 Sunny 85 29.5 69 20.3 58 58 S 15 24 29.90 1013 10 16 N/A
1:35 pm 13:35 Sunny 86 29.8 69 20.4 57 57 S 13 20 29.89 1012 10 16 N/A
1:55 pm 13:55 Sunny 86 29.8 69 20.7 58 58 S 15 24 29.89 1012 10 16 N/A
2:15 pm 14:15 Sunny 86 30.1 69 20.8 57 57 S 14 22 29.89 1012 10 16 N/A
2:35 pm 14:35 Sunny 86 30.1 69 20.8 57 57 SSE 14 22 29.88 1012 10 16 N/A
2:55 pm 14:55 Sunny 87 30.4 70 21.2 58 58 SSE 16 26 29.87 1011 10 16 N/A
3:15 pm 15:15 Sunny 87 30.6 70 21.1 57 57 S 14 22 29.86 1011 10 16 N/A
3:35 pm 15:35 Sunny 87 30.7 70 21.3 57 57 S 14 22 29.86 1011 10 16 N/A
3:55 pm 15:55 Sunny 87 30.7 69 20.3 54 54 S 15 24 29.86 1011 10 16 N/A
4:15 pm 16:15 Sunny 87 30.8 69 20.3 54 54 S 15 24 29.85 1011 10 16 N/A
4:35 pm 16:35 Sunny 88 30.9 70 20.9 55 55 SSE 15 24 29.85 1011 10 16 N/A
4:55 pm 16:55 Sunny 87 30.8 68 20.2 53 53 SSE 13 20 29.84 1011 10 16 N/A
5:15 pm 17:15 Sunny 88 30.9 70 21.2 56 56 S 13 20 29.83 1010 10 16 N/A
5:35 pm 17:35 Sunny 88 30.9 70 21.1 56 56 SSE 16 26 29.82 1010 10 16 N/A
5:55 pm 17:55 Sunny 87 30.7 69 20.6 55 55 SSE 15 24 29.81 1010 10 16 N/A
6:15 pm 18:15 Sunny 87 30.6 70 21.3 58 58 S 12 19 29.81 1010 10 16 N/A
6:35 pm 18:35 Sunny 86 30.2 69 20.7 57 57 S 12 19 29.82 1010 10 16 N/A
6:55 pm 18:55 Sunny 86 30 69 20.4 56 56 SSE 12 19 29.82 1010 10 16 N/A
7:15 pm 19:15 Partly Cloudy 85 29.6 69 20.7 59 59 SSE 9 15 29.81 1010 10 16 N/A
7:35 pm 19:35 Partly Cloudy 85 29.2 71 21.5 63 63 SSE 9 15 29.82 1010 10 16 N/A
7:55 pm 19:55 Sunny 83 28.4 71 21.7 67 67 SSE 9 15 29.82 1010 10 16 N/A
8:15 pm 20:15 Sunny 81 27.4 70 21.2 69 69 SSE 8 13 29.83 1010 10 16 N/A
8:35 pm 20:35 undefined 80 26.7 71 21.5 73 73 SSE 7 11 29.84 1010 10 16 N/A
8:55 pm 20:55 Sunny 78 25.7 71 21.6 78 78 SSE 9 15 29.84 1011 10 16 N/A
9:15 pm 21:15 Clear 78 25.3 70 20.9 77 77 SSE 7 11 29.86 1011 10 16 N/A
9:35 pm 21:35 Clear 77 25.2 70 21 78 78 SE 7 11 29.86 1011 10 16 N/A
9:55 pm 21:55 Clear 78 25.3 69 20.7 76 76 SSE 8 13 29.87 1011 10 16 N/A
10:15 pm 22:15 Clear 77 25 68 20.1 74 74 SSE 8 13 29.87 1012 10 16 N/A
10:35 pm 22:35 Clear 75 24 67 19.6 76 76 SSE 5 7 29.88 1012 10 16 N/A
10:55 pm 22:55 Clear 75 23.8 67 19.6 77 77 SSE 8 13 29.87 1012 10 16 N/A
11:15 pm 23:15 Clear 75 23.8 67 19.3 76 76 SSE 8 13 29.87 1012 10 16 N/A
11:35 pm 23:35 Clear 76 24.2 66 19 73 73 S 9 15 29.87 1011 10 16 N/A
11:55 pm 23:55 Clear 75 24 66 19 74 74 S 9 15 29.87 1011 10 16 N/A

Powered by AerisWeather